星链-5833 (STARLINK-5833 )

导读

STARLINK-5833是美国SpaceX公司星链互联网卫星项目中的一颗卫星,于2023年3月3日发射。星链计划旨在构建全球卫星互联网星座,为全球偏远地区、海洋空域等提供低成本高速互联网接入服务,该卫星加入星座后,进一步扩容了星链网络的覆盖与服务能力。

Basic Information
目录编号:
55773
目录名称:
STARLINK-5833
国际标识:
2023-028AJ
轨道中心:
EARTH
卫星名称:
星链-5833
卫星全名:
星链-5833 (STARLINK-5833 )
卫星状态:
在轨 (已飞行1289 天)
发射日期:
2023-03-03 UTC
国别 :
美国 (US)
星等 :
--
This satellite is enrolled in the Space Conjunction Data Service (SCDS) and the current flight risk assessment level is: No High Risk
Orbit Information
数据来源 国际轨道数据 AOE轨道数据
星历时间 2026-09-12T08:48:56+0800
14小时前
查看轨道信息
2026-09-10T22:00:00+0800
2天前
查看轨道信息
半长轴 6950.235km 6950.233km
偏心率 0.0003211 0.0002959
轨道倾角 69.999° 69.999°
近地点辐角 267.451° 279.911°
升交点赤经 114.698° 118.355°
平近点角 92.628° 177.650°
近地点 569.866km 570.039km
远地点 574.33km 574.153km
周期 96.108分钟 96.108分钟
每日圈数 14.983164 14.983171
Detailed Information
固有亮度:
5
最大亮度:
2.5
卫星平台:
Starlink v1.5
覆盖范围:
全球
运营商:
太空探索技术公司
运营商所在国:
美国
制造商(研发单位):
太空探索技术公司
制造商所在国:
美国
使用方式:
暂无
Satellite Introduction
星链(Starlink)计划是由太空探索技术公司(SpaceX)提出的一个巨型低轨卫星互联网星座项目,计划在2019年至2024年间在太空搭建由约1.2万颗卫星组成的“星链”网络,其中1584颗将部署在地球上空550千米处的近地轨道,并从2020年开始工作。该卫星仍在工作。
2D Orbit Map
3D Orbit Map
Orbit Altitude Analysis Chart
Orbit Inclination Analysis Chart
Orbit Comprehensive Analysis Chart
View Comprehensive Chart
Miss Distance Evolution Trend with All Objects
Collision Probability Evolution Trend with All Objects